OneWeb SL0326

operational
NORAD ID: 49195 Int'l Des: 2021-083 Owner: ONEWEBN Country: UK Constellation: oneweb
LEOCIRCULARPOLARONEWEB_TYPE

OneWeb SL0326について

説明を読み込み中...

リアルタイム位置

3D地球を読み込み中...

次回通過

高度履歴

Altitude vs Time

uPlot chart will show altitude changes over time

軌道要素

1 49195U 21083K 25347.63602493 -.00000002 00000-0 -37884-4 0 9994
2 49195 87.9180 12.3054 0001880 103.9772 256.1569 13.18685591205541
Epoch: Dec 13, 2025 • Age: 17 hours

現在のステータス

高度 1197.5 km
速度 7.26 km/s
衛星直下点 53.02°N, 172.86°E
打ち上げ日 Sep 14, 2021
運用期間 4.2 years
タイプ internet

技術仕様

分類 Payload
質量 148.00 kg
乾燥質量 140.00 kg
総質量 148.00 kg
長さ 1.30 m
直径 1.00 m
スパン 5.00 m
形状 Trapezoid+2 pan
製造者 ONEWUS
バスタイプ ARROW
フェーズステータス In Orbit
所有者/国 ONEWEBN/UK

大規模コンステレーション

Loading constellations...